Theta_e
310 305 302 298 291 289 286 289 294 290 300 304 304 302 301 301 299 291 317 326 329 331 334 335 337 333 331 329 328 327 326 326 325 325 324 323 323 322 323 323 323 326 328 331 334 337 338 339 339
307 306 297 291 286 283 284 288 289 296 302 303 302 301 299 299 309 314 319 327 330 330 330 330 334 331 329 327 326 325 325 324 323 322 322 321 320 320 320 320 320 321 322 324 327 332 335 335 336
306 300 293 287 282 282 284 287 290 297 299 299 303 300 299 301 310 316 321 327 328 325 326 328 332 329 327 326 324 323 323 322 321 321 320 319 318 318 318 317 318 318 319 320 321 324 329 331 332
301 294 291 287 282 286 286 291 291 295 299 301 299 297 304 309 313 319 326 325 322 321 324 329 331 328 326 324 323 323 322 321 320 319 318 317 316 316 316 316 316 317 318 320 320 321 322 326 328
295 290 284 283 284 287 288 289 292 290 295 300 299 297 300 313 318 324 323 323 320 318 322 324 329 327 324 323 322 322 321 319 318 316 315 315 315 315 315 315 316 316 317 317 318 319 320 320 322
291 289 282 281 283 288 289 292 290 290 292 299 300 298 301 314 316 318 320 318 320 318 320 321 325 326 324 323 321 320 319 317 315 314 314 314 314 314 313 313 313 314 315 316 317 317 317 318 319
289 286 282 282 284 287 290 293 295 296 296 298 300 295 302 311 316 316 317 316 316 317 317 316 317 320 322 323 322 319 317 314 313 313 313 312 312 311 311 311 311 313 314 315 316 316 316 316 317
292 288 284 285 285 286 292 292 294 295 292 298 302 298 298 308 316 314 314 313 313 314 314 312 312 312 310 311 318 318 316 311 312 312 311 309 308 309 310 311 313 314 314 314 315 316 316 318 316
292 286 283 284 285 287 290 289 292 293 296 294 297 297 303 311 313 310 309 309 309 311 310 310 309 307 306 306 309 313 314 313 311 310 309 304 301 302 304 308 312 313 314 314 315 315 316 316 315
289 284 286 287 288 287 288 288 288 291 288 289 292 305 308 312 311 309 308 307 307 307 307 308 307 305 303 306 304 301 304 303 304 302 300 301 300 300 305 304 309 310 311 312 314 314 313 311 307
288 285 286 290 289 290 289 288 289 290 288 291 290 297 307 308 309 308 308 309 309 308 308 307 306 305 303 302 300 301 301 301 300 298 299 299 299 299 300 300 300 300 305 302 305 305 305 305 306
287 291 290 293 292 290 288 289 289 289 291 292 292 304 307 307 308 309 308 307 307 307 308 307 305 304 303 301 301 301 301 299 297 298 299 298 298 298 298 298 299 299 302 302 303 304 305 306 306
290 291 292 293 292 291 290 289 289 289 292 293 293 297 306 306 308 309 310 310 308 307 307 306 304 302 302 301 301 300 300 298 296 297 298 299 298 297 297 298 298 299 303 303 303 304 305 306 306
291 291 292 292 290 289 289 287 288 291 289 290 292 292 296 305 307 306 308 309 309 309 308 306 304 303 303 302 301 299 297 296 296 296 299 300 298 297 297 298 298 300 303 304 304 304 305 305 306
292 288 289 289 289 289 288 286 287 292 292 291 290 292 293 296 304 305 307 309 310 310 309 305 304 304 303 302 300 298 298 297 296 298 299 299 299 298 298 298 300 302 304 304 304 305 306 306 308
286 287 284 288 290 289 286 283 287 290 288 290 290 289 291 292 296 302 304 308 310 309 307 305 306 304 302 301 299 297 296 296 297 298 298 299 300 300 299 300 301 303 304 304 305 308 305 306 307
284 279 282 286 290 290 287 284 287 289 289 290 290 290 290 290 292 294 299 306 308 308 306 304 303 302 301 298 297 296 296 297 298 298 298 300 301 303 301 301 302 305 307 309 310 311 308 307 306
281 281 280 281 286 288 286 287 289 290 290 290 289 288 288 289 290 293 302 306 305 305 304 303 302 300 298 297 295 295 296 297 298 298 299 301 302 303 302 302 302 304 308 308 309 309 307 308 307
281 281 280 282 287 286 286 287 289 289 287 287 287 287 287 289 295 301 303 302 302 302 302 301 300 298 296 294 293 293 294 295 297 299 300 301 302 303 302 301 301 302 303 307 309 311 308 307 308
283 281 281 284 286 284 284 286 289 289 288 288 289 287 289 293 297 299 299 299 300 300 300 300 299 297 296 295 293 293 294 295 297 299 300 301 302 302 303 301 301 301 304 307 309 307 308 308 309
283 281 281 281 284 283 283 283 285 287 288 289 289 289 292 295 297 297 298 297 298 299 299 299 298 297 295 294 295 295 295 296 296 297 298 299 301 301 302 302 301 304 306 306 308 310 308 304 306
280 286 286 284 281 278 281 277 283 283 285 287 287 288 290 294 296 297 297 296 297 298 298 299 297 295 294 294 294 294 293 293 295 296 297 298 300 301 302 302 303 305 306 307 308 310 306 306 303
284 286 285 284 281 279 279 278 283 283 285 287 287 287 288 292 295 296 298 298 297 297 296 296 294 293 293 293 294 293 293 294 295 295 296 296 298 300 301 301 302 304 306 308 309 310 307 305 303
289 287 285 282 281 272 280 279 280 283 285 286 287 288 289 290 293 295 297 297 296 294 294 293 292 291 292 292 293 293 293 294 294 294 295 295 297 298 299 300 300 303 306 307 310 310 305 303 304
286 282 272 272 269 273 279 277 280 284 286 286 289 288 289 290 292 293 295 295 294 293 292 292 292 291 291 292 293 293 294 294 294 294 294 294 295 296 297 298 299 303 306 309 310 310 304 303 306
283 282 277 272 271 274 279 277 282 285 286 287 287 289 289 289 292 293 294 294 293 293 292 291 291 291 291 292 293 293 294 294 294 295 294 294 294 296 297 299 300 305 307 310 311 310 305 304 307
284 281 284 276 270 274 278 281 286 285 284 285 286 288 288 289 291 293 294 294 293 292 292 291 291 291 291 291 292 293 293 293 294 294 294 294 295 297 298 299 299 305 307 309 310 307 305 305 306
283 286 279 277 269 271 275 278 282 283 284 284 286 287 288 289 290 292 293 293 294 293 292 291 291 291 291 291 292 293 293 294 294 294 294 295 296 297 298 299 299 304 307 309 308 307 304 303 305
282 280 281 282 279 274 271 278 285 286 285 285 285 287 286 288 289 291 292 293 294 293 292 292 291 291 290 290 291 292 293 294 294 294 295 295 297 298 298 299 299 302 305 307 306 304 303 302 303
284 283 283 279 274 276 277 280 287 287 286 288 288 290 289 289 288 288 290 292 292 292 291 291 291 291 290 290 291 292 293 293 293 294 295 296 297 298 299 299 300 301 307 308 308 305 303 302 300
Wind_Speed
6 5 3 6 5 5 3 5 3 2 1 2 1 3 5 3 4 5 3 6 8 10 8 9 12 12 11 10 9 8 8 8 7 7 6 7 7 7 7 7 8 9 9 9 9 8 7 9 9
3 1 6 3 5 2 5 4 4 4 3 3 2 2 2 1 1 3 4 5 10 9 6 6 11 12 11 9 9 8 9 7 7 7 7 7 8 7 7 8 8 8 9 9 9 10 10 8 10
1 4 5 5 4 5 4 5 4 3 4 2 1 4 4 1 1 6 3 9 9 7 7 7 11 12 11 9 9 9 8 8 7 7 7 7 6 7 7 7 8 9 9 9 8 8 9 9 9
2 5 5 5 5 6 5 3 4 2 4 1 2 1 1 0 4 6 11 10 9 7 6 9 12 12 11 10 10 9 8 7 7 7 6 6 7 7 8 8 9 10 9 10 10 10 9 9 9
5 3 4 1 5 5 5 4 6 3 2 2 1 2 1 4 4 11 11 9 11 7 6 6 10 11 10 10 9 9 8 7 7 6 6 7 7 7 8 8 9 8 9 10 11 11 11 11 12
4 3 4 3 5 4 5 3 2 1 2 2 2 3 2 2 4 6 8 8 8 10 6 6 8 9 9 9 8 8 7 7 5 6 7 7 7 6 7 6 9 10 9 10 10 10 11 11 12
6 4 4 4 4 5 4 2 2 2 2 4 4 3 1 2 5 7 7 7 7 7 7 6 6 7 9 8 7 7 6 5 5 5 6 7 7 6 6 7 8 8 9 8 9 9 10 10 12
6 4 5 4 4 5 1 3 2 3 4 2 7 5 5 6 9 8 7 6 6 6 6 6 6 6 6 5 7 6 5 4 4 4 6 6 6 7 7 8 8 9 9 9 11 11 10 11 9
4 4 3 5 7 5 1 2 1 2 2 3 2 4 2 9 12 8 5 4 4 3 4 6 6 6 5 5 4 5 3 3 3 4 5 5 3 4 6 8 9 10 11 11 11 11 12 12 11
5 4 9 4 3 3 1 1 3 3 3 3 3 1 4 9 10 12 9 8 6 6 6 6 7 7 6 4 4 3 2 1 2 3 3 3 4 5 5 7 10 11 12 12 12 12 11 9 4
5 6 3 3 2 1 2 3 1 1 6 9 7 5 7 6 7 9 8 9 12 6 5 6 6 6 6 4 3 2 1 2 2 2 1 3 3 3 3 3 4 4 7 4 5 6 4 6 4
3 7 4 4 1 0 3 2 5 7 11 2 7 5 7 9 10 11 10 8 8 7 8 7 6 5 5 3 3 3 3 2 2 1 1 2 2 3 3 3 4 4 3 5 4 3 5 5 5
3 3 4 4 4 5 2 7 6 12 12 9 5 3 9 8 9 6 6 6 7 8 7 7 7 7 5 5 3 3 3 2 3 1 1 2 2 3 3 3 3 4 4 4 4 4 4 5 5
2 3 6 5 3 4 4 3 1 7 1 3 7 10 9 11 13 5 7 8 8 8 8 7 7 7 7 5 5 3 3 2 2 1 1 3 2 2 3 4 4 4 4 5 4 4 5 5 4
1 5 6 6 2 6 3 6 11 9 7 7 3 6 8 11 8 13 10 9 10 7 8 9 8 7 7 7 5 3 2 3 2 1 2 2 2 2 3 3 4 4 5 6 4 5 4 4 5
1 2 3 1 6 2 4 9 2 3 4 7 7 6 6 5 9 7 8 8 8 7 10 8 7 7 7 7 5 4 2 3 1 1 1 2 2 3 4 4 4 4 5 3 4 3 4 5 5
2 3 5 7 7 3 4 7 4 2 5 8 8 8 7 7 5 6 8 8 9 9 11 9 8 8 7 6 5 4 4 3 1 1 1 2 2 4 3 3 4 5 5 5 5 3 2 2 4
6 4 5 5 2 2 2 12 11 9 6 12 11 9 8 8 6 4 7 7 8 9 9 9 6 7 6 5 4 4 3 2 0 1 1 3 3 5 4 4 5 5 5 5 6 3 3 2 3
3 3 4 3 1 1 6 10 14 12 6 10 10 8 7 2 3 5 6 8 10 8 10 9 9 6 5 2 3 2 2 0 1 1 1 1 2 4 4 3 4 4 5 5 7 2 1 2 2
2 0 4 3 1 2 5 15 11 8 4 4 7 2 6 5 5 6 6 6 5 9 8 8 7 7 4 3 2 2 2 2 1 1 1 2 3 4 3 4 4 4 5 7 6 4 2 2 5
5 5 4 3 2 1 6 9 4 1 2 3 6 4 4 7 8 6 6 6 7 8 8 8 7 7 4 5 4 3 2 2 1 1 1 2 3 3 3 4 4 4 3 4 6 5 1 1 3
5 8 6 2 3 5 2 7 6 1 2 2 3 4 5 6 5 5 6 6 7 6 6 7 7 7 5 6 3 4 3 2 2 2 1 1 2 4 4 5 5 4 4 4 4 6 1 3 1
6 5 6 3 3 2 2 2 10 3 4 5 6 6 6 6 7 7 8 7 5 6 6 6 6 6 5 5 4 4 2 1 1 0 1 1 2 3 4 5 4 4 4 4 4 6 1 2 2
9 7 8 5 3 3 7 7 7 5 5 3 3 5 7 7 6 6 5 6 6 5 6 6 6 4 5 4 4 5 5 4 2 0 1 1 2 2 4 5 5 4 4 4 3 4 2 3 4
4 7 3 4 4 7 3 1 10 3 3 2 6 7 7 7 7 7 8 7 6 7 7 6 6 5 4 4 4 4 5 5 5 3 2 2 1 1 3 4 5 3 5 5 3 2 1 2 4
6 7 8 9 6 4 3 8 9 4 1 1 1 6 6 7 6 7 7 7 7 7 7 7 7 5 5 5 4 4 4 3 3 3 2 3 2 1 3 4 5 4 5 5 2 2 3 2 4
7 6 5 9 2 4 5 7 8 3 2 2 3 5 6 7 7 8 7 7 7 7 8 8 7 5 6 6 5 4 4 4 4 3 2 2 2 1 2 3 5 4 4 4 4 2 3 2 5
3 7 4 3 5 4 4 5 7 6 8 5 5 6 5 5 6 6 7 8 6 6 6 6 7 7 7 6 5 4 5 4 3 3 4 4 2 1 1 3 3 5 4 3 4 2 4 4 3
4 3 3 5 5 7 3 8 6 8 9 9 7 5 3 6 6 6 6 6 7 5 6 7 7 7 6 6 5 6 5 5 4 4 4 4 3 2 1 2 3 4 4 2 4 3 3 5 5
2 6 6 6 6 2 3 8 3 6 8 8 7 6 4 5 3 5 6 6 6 7 7 7 6 7 6 6 5 6 5 4 5 4 4 4 4 2 2 1 2 3 1 3 3 4 3 4 5
Wind_Direction
345 350 76 43 54 65 261 261 266 245 237 240 277 184 163 123 158 209 354 165 127 148 141 152 155 145 136 139 135 121 107 93 88 81 71 60 50 42 31 21 13 4 355 350 337 318 18 15 1
346 1 43 79 92 76 266 261 243 246 225 122 131 72 79 164 93 106 114 163 141 133 136 122 140 147 145 137 128 112 102 99 89 78 64 57 48 37 28 16 8 2 356 351 343 341 331 5 357
330 41 87 98 112 185 210 225 214 279 311 234 55 49 131 182 162 171 139 134 125 121 125 141 145 149 144 134 123 118 117 106 95 80 63 50 36 27 17 7 1 354 350 345 341 336 327 327 329
62 12 34 94 218 249 213 280 211 282 310 279 137 26 29 31 163 173 137 133 121 123 126 144 152 149 144 133 131 129 120 111 95 73 55 34 20 12 8 2 356 349 348 343 336 328 318 310 306
33 56 75 114 252 263 247 264 164 213 261 235 118 225 275 9 81 128 134 129 131 137 137 136 150 145 139 140 135 128 120 102 86 72 44 23 14 11 9 2 360 354 341 333 328 323 318 313 307
34 97 74 213 244 253 269 254 221 159 276 262 97 135 249 65 116 144 132 135 144 140 137 140 136 137 141 138 134 127 116 105 94 67 44 32 24 10 354 351 344 329 326 327 323 317 311 307 305
126 95 204 183 259 300 217 326 190 196 208 232 154 157 300 226 146 136 126 118 129 136 137 134 132 132 122 117 121 122 119 111 85 74 50 41 17 6 355 336 328 322 319 320 319 316 308 299 298
109 94 154 242 206 260 233 331 186 189 246 281 166 205 231 203 141 114 104 114 123 132 133 140 121 113 108 102 113 115 127 114 101 81 56 38 20 359 355 353 332 333 330 323 320 317 308 313 287
129 63 210 233 164 237 14 33 206 293 252 317 215 166 292 123 119 111 105 92 108 131 152 142 134 129 131 129 152 135 133 112 78 62 45 29 12 352 346 339 342 335 333 328 327 325 327 321 319
100 138 219 215 221 245 246 168 312 353 325 270 265 90 86 127 146 155 167 169 173 178 180 171 154 159 154 154 132 132 103 103 88 55 33 11 1 351 354 340 342 344 343 337 336 338 334 331 312
157 200 219 266 227 225 289 288 276 229 270 229 223 197 155 145 158 171 185 184 185 178 168 178 167 166 154 145 144 140 146 100 71 66 45 11 10 356 350 338 341 336 343 339 340 331 322 318 313
170 237 217 285 347 86 256 315 285 206 230 214 222 173 162 172 184 188 190 178 166 174 182 173 168 156 166 132 151 159 135 115 99 123 48 33 7 0 344 339 331 335 327 329 324 306 301 307 304
223 259 183 245 295 266 309 248 238 263 251 258 236 178 201 199 208 203 185 172 159 174 181 175 155 152 146 143 143 143 129 127 160 113 39 53 21 352 332 338 342 331 328 313 309 307 305 299 298
232 261 286 275 226 262 233 246 85 271 327 267 215 228 217 211 209 183 178 187 177 177 174 158 158 150 143 149 156 140 127 150 104 81 67 54 53 340 3 352 343 328 312 299 304 312 316 302 292
338 319 314 238 213 222 168 279 232 254 297 282 229 243 226 225 200 205 195 193 178 182 152 158 151 145 146 148 138 131 156 109 90 91 60 40 15 4 14 351 338 320 298 309 329 326 327 330 343
10 38 323 232 144 193 136 270 268 357 217 259 274 268 256 239 225 205 189 185 175 143 154 142 140 141 141 140 134 131 114 95 84 71 52 356 358 36 26 359 337 317 303 313 326 311 355 352 3
356 222 217 309 191 126 170 266 262 89 49 299 277 265 278 294 245 217 187 173 165 149 142 135 136 145 139 126 120 103 97 94 113 99 33 347 23 46 38 5 327 326 308 336 331 336 25 359 358
194 215 246 250 220 195 218 266 276 272 255 252 265 272 273 271 254 182 144 132 121 122 121 122 123 128 122 104 94 77 83 68 26 333 38 348 358 21 29 7 339 341 321 345 338 8 18 36 18
145 196 226 226 166 241 238 268 279 280 233 276 274 262 245 180 28 91 96 106 105 102 119 130 135 143 131 115 107 93 146 200 290 278 22 330 354 37 24 2 339 350 328 333 313 278 39 8 342
29 186 256 279 253 200 323 288 261 268 247 281 290 249 147 122 99 90 98 100 104 131 129 131 140 153 157 119 136 139 163 187 217 270 305 326 340 35 13 1 340 347 326 340 332 346 334 24 6
219 194 215 215 347 292 329 293 330 50 99 27 35 85 107 146 137 127 122 123 123 139 148 149 156 159 153 126 112 78 55 39 29 313 322 322 332 15 358 354 349 337 325 330 325 320 314 57 33
222 199 176 197 88 231 28 276 301 326 266 46 81 102 132 133 124 137 140 139 154 159 146 145 152 157 149 146 131 146 168 179 221 201 239 301 349 354 349 354 350 343 325 331 324 310 242 109 135
223 126 147 109 105 11 266 75 270 323 241 197 204 196 180 177 162 161 163 159 161 153 161 156 151 150 142 149 152 142 158 208 253 47 274 318 338 7 344 356 342 353 335 323 330 317 22 91 100
155 83 51 57 70 339 218 161 273 203 208 158 171 193 188 180 176 163 162 143 144 152 153 155 153 158 151 154 165 174 174 173 189 243 268 294 311 355 341 345 349 344 328 326 320 313 317 80 102
105 99 19 358 10 223 16 149 247 236 205 194 188 195 184 175 171 167 168 171 164 171 171 164 161 171 171 171 181 186 193 182 198 193 235 253 305 348 331 342 343 335 332 320 328 108 44 68 79
184 161 157 193 193 224 113 225 250 210 275 137 333 164 154 171 179 183 187 182 179 179 173 175 173 179 176 181 205 197 193 183 206 193 201 233 233 260 306 332 330 338 350 334 27 98 95 108 86
185 198 150 105 43 66 212 281 290 183 158 137 143 137 169 183 189 189 184 191 185 184 190 186 182 190 187 188 193 206 196 180 200 221 215 241 249 240 308 332 335 335 10 1 23 69 89 90 97
160 158 95 348 135 230 270 275 240 215 203 172 165 190 198 192 189 189 192 195 195 194 193 186 191 197 198 188 194 200 202 190 196 193 231 247 247 249 299 323 346 327 16 24 51 59 65 90 74
153 191 192 129 155 165 170 252 216 205 180 176 175 160 155 189 190 204 205 201 192 193 195 200 194 198 198 189 191 197 206 190 189 206 236 242 248 227 244 301 336 327 353 358 89 92 104 106 96
303 207 174 149 229 236 153 264 327 199 165 152 161 151 123 112 127 199 199 201 192 201 203 207 202 198 205 191 188 202 202 190 184 215 232 256 257 247 224 252 311 298 355 293 142 129 127 126 120